Weather History for KBEH - March, 2013

Change the Weather History Date:

Monday, March 11, 2013

  Actual Average Record
Temperature  
Mean Temperature 42 °F -  
Max Temperature 52 °F 45 °F 75 °F (1990)
Min Temperature 33 °F 27 °F 6 °F (1999)
Degree Days  
Heating Degree Days 22    
Moisture  
Dew Point 41 °F    
Average Humidity 92    
Maximum Humidity 100    
Minimum Humidity 80    
Precipitation  
Precipitation 0.26 in - - ()
Sea Level Pressure  
Sea Level Pressure 29.61 in    
Wind  
Wind Speed 11 mph (SSW)    
Max Wind Speed 20 mph    
Max Gust Speed 31 mph    
Visibility 6 miles    
Events Rain    
Averages and records for this station are not official NWS values.
T = Trace of Precipitation, MM = Missing Value Source: NWS Daily Summary

Daily Weather History Graph

Daily Weather History Graph

Search for Another Location

Airport or City:

Trip Planner

Search our weather history database for the weather conditions in past years. The results will help you decide how hot, cold, wet, or windy it might be!

Date:

Astronomy

Mar. 11, 2013 Rise Set
Actual Time 8:03 AM EDT 7:47 PM EDT
Civil Twilight 7:36 AM EDT 8:15 PM EDT
Nautical Twilight 7:03 AM EDT 8:48 PM EDT
Astronomical Twilight 6:30 AM EDT 9:21 PM EDT
Moon 7:37 AM EDT (3/11) 8:00 PM EDT (3/11)
Length of Visible Light 12h 39m
Length of Day
11h 43m
Waning Crescent, 0% of the Moon is Illuminated
Mar 11
Waning Crescent
Mar 11
New
Mar 19
First Quarter
Mar 27
Full
Apr 3
Last Quarter

Hourly Weather History & Observations

Time (EDT) Temp. Windchill Dew Point Humidity Pressure Visibility Wind Dir Wind Speed Gust Speed Precip Events Conditions
12:53 AM 52.0 °F - 46.0 °F 80% 29.68 in 6.0 mi South 13.8 mph 24.2 mph 0.03 in Rain Light Rain
1:53 AM 51.1 °F - 46.9 °F 86% 29.66 in 10.0 mi South 10.4 mph - 0.01 in   Overcast
2:24 AM 51.8 °F - 48.2 °F 88% 29.66 in 4.0 mi South 10.4 mph 20.7 mph 0.01 in Rain Rain
2:44 AM 50.0 °F - 48.2 °F 94% 29.66 in 3.0 mi South 9.2 mph 18.4 mph 0.02 in Rain Light Rain
2:53 AM 50.0 °F - 48.9 °F 96% 29.66 in 2.5 mi South 8.1 mph - 0.03 in Rain Light Rain
3:53 AM 50.0 °F - 48.0 °F 93% 29.65 in 3.0 mi South 8.1 mph - 0.02 in Rain Light Rain
4:53 AM 50.0 °F - 48.0 °F 93% 29.64 in 6.0 mi SSW 9.2 mph - 0.02 in Rain Light Rain
5:02 AM 50.0 °F - 46.4 °F 87% 29.63 in 9.0 mi SW 10.4 mph - 0.00 in   Overcast
5:31 AM 48.2 °F - 46.4 °F 93% 29.63 in 10.0 mi SW 11.5 mph - 0.00 in   Overcast
5:53 AM 48.9 °F - 46.0 °F 90% 29.63 in 10.0 mi SSW 6.9 mph - 0.00 in   Mostly Cloudy
6:53 AM 48.0 °F - 46.0 °F 93% 29.62 in 10.0 mi SE 3.5 mph - N/A   Overcast
7:12 AM 46.4 °F 45.2 °F 46.4 °F 100% 29.62 in 7.0 mi South 3.5 mph - N/A   Mostly Cloudy
7:53 AM 46.9 °F - 45.0 °F 93% 29.64 in 6.0 mi SE 4.6 mph - N/A   Overcast
8:51 AM 46.4 °F 45.2 °F 44.6 °F 93% 29.62 in 4.0 mi SSE 3.5 mph - 0.00 in Rain Light Rain
8:53 AM 46.9 °F - 45.0 °F 93% 29.63 in 4.0 mi Calm Calm - 0.00 in Rain Light Rain
9:29 AM 46.4 °F 45.2 °F 46.4 °F 100% 29.61 in 5.0 mi SE 3.5 mph - 0.00 in   Overcast
9:38 AM 46.4 °F 44.3 °F 46.4 °F 100% 29.60 in 5.0 mi SE 4.6 mph - 0.00 in   Overcast
9:45 AM 48.2 °F - 46.4 °F 93% 29.61 in 5.0 mi SSE 5.8 mph - 0.00 in   Overcast
9:53 AM 48.0 °F - 46.0 °F 93% 29.61 in 5.0 mi SSE 5.8 mph - 0.00 in   Overcast
10:14 AM 48.2 °F - 46.4 °F 93% 29.60 in 5.0 mi SSE 6.9 mph - N/A   Overcast
10:23 AM 48.2 °F - 46.4 °F 93% 29.59 in 6.0 mi SE 6.9 mph - N/A   Overcast
10:31 AM 48.2 °F - 46.4 °F 93% 29.59 in 5.0 mi SSE 5.8 mph - N/A   Overcast
10:53 AM 48.0 °F - 46.9 °F 96% 29.59 in 4.0 mi SSE 5.8 mph - 0.01 in Rain Light Rain
11:20 AM 48.2 °F - 46.4 °F 93% 29.57 in 4.0 mi SSE 4.6 mph - 0.02 in Rain Light Rain
11:32 AM 48.2 °F - 46.4 °F 93% 29.57 in 2.0 mi SSE 5.8 mph - 0.03 in Rain Light Rain
11:38 AM 48.2 °F - 46.4 °F 93% 29.57 in 1.2 mi South 8.1 mph - 0.04 in Rain Light Rain
11:51 AM 48.2 °F - 46.4 °F 93% 29.57 in 1.8 mi SSW 8.1 mph - 0.08 in Rain Rain
11:53 AM 48.9 °F - 46.9 °F 93% 29.57 in 2.0 mi SSW 8.1 mph - 0.09 in Rain Rain
12:01 PM 48.2 °F - 46.4 °F 93% 29.56 in 4.0 mi SSW 5.8 mph - 0.00 in Rain Light Rain
12:25 PM 44.6 °F 37.4 °F 42.8 °F 93% 29.57 in 2.5 mi WSW 16.1 mph - 0.01 in Rain Light Rain
12:43 PM 44.6 °F 38.1 °F 42.8 °F 93% 29.57 in 3.0 mi WSW 13.8 mph - 0.02 in Rain Light Rain
12:53 PM 43.0 °F 36.0 °F 42.1 °F 97% 29.58 in 4.0 mi WSW 13.8 mph - 0.02 in   Overcast
1:15 PM 42.8 °F 35.8 °F 41.0 °F 93% 29.58 in 5.0 mi WSW 13.8 mph - N/A   Overcast
1:53 PM 42.1 °F 35.7 °F 41.0 °F 96% 29.56 in 5.0 mi WSW 11.5 mph - 0.00 in   Overcast
2:53 PM 41.0 °F 33.5 °F 39.0 °F 93% 29.55 in 8.0 mi WSW 13.8 mph - N/A   Overcast
3:08 PM 41.0 °F 33.1 °F 37.4 °F 87% 29.54 in 10.0 mi WSW 15.0 mph - N/A   Overcast
3:26 PM 39.2 °F 29.8 °F 37.4 °F 93% 29.53 in 5.0 mi WSW 18.4 mph 25.3 mph N/A   Overcast
3:38 PM 37.4 °F 27.8 °F 37.4 °F 100% 29.53 in 2.0 mi WSW 17.3 mph - N/A   Overcast
3:41 PM 37.4 °F 28.2 °F 37.4 °F 100% 29.53 in 1.8 mi WSW 16.1 mph - N/A   Overcast
3:53 PM 37.9 °F 29.2 °F 37.0 °F 97% 29.55 in 1.8 mi WSW 15.0 mph 25.3 mph N/A   Overcast
3:57 PM 37.4 °F 27.8 °F 37.4 °F 100% 29.54 in 3.0 mi WSW 17.3 mph - N/A   Overcast
4:18 PM 37.4 °F 27.2 °F 35.6 °F 93% 29.56 in 7.0 mi WSW 19.6 mph 26.5 mph N/A   Overcast
4:53 PM 37.0 °F 28.1 °F 35.1 °F 93% 29.58 in 4.0 mi WSW 15.0 mph - N/A   Overcast
5:53 PM 37.0 °F 28.1 °F 34.0 °F 89% 29.60 in 5.0 mi SW 15.0 mph 23.0 mph N/A   Overcast
6:14 PM 37.4 °F 27.8 °F 33.8 °F 87% 29.59 in 4.0 mi SW 17.3 mph 26.5 mph N/A   Overcast
6:53 PM 36.0 °F 25.6 °F 34.0 °F 93% 29.61 in 4.0 mi SW 18.4 mph 26.5 mph 0.01 in   Overcast
7:09 PM 35.6 °F 25.2 °F 33.8 °F 93% 29.61 in 4.0 mi SW 18.4 mph 28.8 mph 0.00 in Rain Light Rain
7:53 PM 35.1 °F 25.2 °F 33.1 °F 92% 29.65 in 7.0 mi SW 16.1 mph 31.1 mph 0.01 in   Overcast
8:53 PM 35.1 °F 24.8 °F 33.1 °F 92% 29.67 in 5.0 mi WSW 17.3 mph - 0.00 in   Overcast
9:31 PM 35.6 °F 25.2 °F 32.0 °F 87% 29.68 in 9.0 mi WSW 18.4 mph 28.8 mph 0.01 in   Overcast
9:53 PM 35.1 °F 24.1 °F 32.0 °F 89% 29.70 in 8.0 mi West 19.6 mph 27.6 mph 0.01 in   Overcast
10:51 PM 35.6 °F 25.9 °F 30.2 °F 81% 29.71 in 10.0 mi WSW 16.1 mph - N/A   Overcast
10:53 PM 35.1 °F 24.8 °F 30.9 °F 85% 29.72 in 10.0 mi WSW 17.3 mph - N/A   Overcast
11:07 PM 33.8 °F 23.2 °F 30.2 °F 87% 29.71 in 10.0 mi WSW 17.3 mph - N/A   Overcast
11:41 PM 33.8 °F 23.5 °F 32.0 °F 93% 29.73 in 9.0 mi WSW 16.1 mph - N/A   Overcast
11:53 PM 34.0 °F 23.0 °F 30.9 °F 89% 29.75 in 10.0 mi WSW 18.4 mph 23.0 mph N/A   Overcast